TimeMDT,TemperatureF,Dew PointF,Humidity,Sea Level PressureIn,VisibilityMPH,Wind Direction,Wind SpeedMPH,Gust SpeedMPH,PrecipitationIn,Events,Conditions,WindDirDegrees,DateUTC
12:52 AM,62.1,43.0,50,29.86,10.0,North,8.1,-,N/A,,Scattered Clouds,360,2012-09-26 06:52:00
1:52 AM,61.0,42.1,50,29.86,10.0,Calm,Calm,-,N/A,,Scattered Clouds,0,2012-09-26 07:52:00
2:52 AM,60.1,42.1,51,29.87,10.0,North,3.5,-,N/A,,Mostly Cloudy,360,2012-09-26 08:52:00
3:52 AM,60.1,42.1,51,29.88,10.0,NE,5.8,-,N/A,,Scattered Clouds,50,2012-09-26 09:52:00
4:52 AM,57.9,41.0,53,29.90,10.0,North,8.1,-,N/A,,Scattered Clouds,10,2012-09-26 10:52:00
5:52 AM,57.9,41.0,53,29.92,10.0,North,8.1,-,N/A,,Partly Cloudy,360,2012-09-26 11:52:00
6:52 AM,57.0,43.0,59,29.94,10.0,North,10.4,-,N/A,,Scattered Clouds,350,2012-09-26 12:52:00
7:52 AM,55.0,43.0,64,29.96,10.0,North,8.1,-,N/A,,Scattered Clouds,360,2012-09-26 13:52:00
8:52 AM,57.9,43.0,58,29.98,10.0,NW,6.9,-,N/A,,Scattered Clouds,320,2012-09-26 14:52:00
9:52 AM,62.1,43.0,50,29.98,10.0,NNW,5.8,-,N/A,,Partly Cloudy,330,2012-09-26 15:52:00
10:52 AM,66.9,43.0,42,29.97,10.0,Calm,Calm,-,N/A,,Scattered Clouds,0,2012-09-26 16:52:00
11:52 AM,70.0,41.0,35,29.95,10.0,Variable,4.6,-,N/A,,Partly Cloudy,0,2012-09-26 17:52:00
12:52 PM,73.0,37.9,28,29.93,10.0,SW,8.1,-,N/A,,Partly Cloudy,220,2012-09-26 18:52:00
1:52 PM,73.9,37.9,27,29.91,10.0,Calm,Calm,-,N/A,,Partly Cloudy,0,2012-09-26 19:52:00
2:52 PM,75.9,36.0,23,29.89,10.0,Calm,Calm,-,N/A,,Mostly Cloudy,0,2012-09-26 20:52:00
3:52 PM,75.9,37.9,25,29.89,10.0,South,13.8,28.8,0.00,Rain,Light Rain,190,2012-09-26 21:52:00
4:52 PM,75.9,36.0,23,29.87,10.0,WSW,5.8,-,0.00,,Mostly Cloudy,250,2012-09-26 22:52:00
4:57 PM,75.2,35.6,24,30.07,10.0,Calm,Calm,-,N/A,Thunderstorm,Thunderstorm,0,2012-09-26 22:57:00
5:36 PM,71.6,41.0,33,30.10,7.0,SSE,18.4,29.9,N/A,Thunderstorm,Thunderstorm,150,2012-09-26 23:36:00
5:52 PM,69.1,43.0,39,29.90,10.0,ESE,11.5,-,N/A,,Mostly Cloudy,120,2012-09-26 23:52:00
6:52 PM,70.0,44.1,39,29.92,10.0,SE,9.2,-,N/A,,Mostly Cloudy,140,2012-09-27 00:52:00
7:52 PM,68.0,44.1,42,29.93,10.0,SE,5.8,-,N/A,,Mostly Cloudy,130,2012-09-27 01:52:00
8:52 PM,66.2,42.8,43,30.11,10.0,SE,6.9,-,N/A,,Mostly Cloudy,140,2012-09-27 02:52:00
9:52 PM,64.0,43.0,46,29.94,10.0,ESE,6.9,-,N/A,,Mostly Cloudy,120,2012-09-27 03:52:00
10:52 PM,64.9,42.1,43,29.94,10.0,ESE,10.4,-,0.00,,Mostly Cloudy,110,2012-09-27 04:52:00
11:52 PM,64.0,43.0,46,29.95,10.0,South,3.5,-,0.00,,Mostly Cloudy,170,2012-09-27 05:52:00